Leesburg, FL

4:05 PM EST on December 09, 2019 (GMT -0500)
Leesburg Regional

Weather History for KLEE - October, 2019

Change the Weather History Date:

Thursday, October 24, 2019

  Actual Average Record
Temperature  
Mean Temperature 78 °F -  
Max Temperature 90 °F 81 °F 89 °F (2001)
Min Temperature 66 °F 61 °F 45 °F (1987)
Cooling Degree Days 12    
Growing Degree Days 28 (Base 50)    
Moisture  
Dew Point 70 °F    
Average Humidity 76    
Maximum Humidity 88    
Minimum Humidity 59    
Precipitation  
Precipitation 0.01 in - - ()
Sea Level Pressure  
Sea Level Pressure 30.10 in    
Wind  
Wind Speed 5 mph (ENE)    
Max Wind Speed 15 mph    
Max Gust Speed 22 mph    
Visibility 10 miles    
Events Rain    
Averages and records for this station are not official NWS values.
T = Trace of Precipitation, MM = Missing Value Source: NWS Daily Summary

Daily Weather History Graph

Daily Weather History Graph

Search for Another Location

Airport or City:

Astronomy

Oct. 24, 2019 Rise Set
Actual Time 7:33 AM EDT 6:48 PM EDT
Civil Twilight 7:09 AM EDT 7:12 PM EDT
Nautical Twilight 6:41 AM EDT 7:40 PM EDT
Astronomical Twilight 6:14 AM EDT 8:07 PM EDT
Moon 3:31 AM EDT (10/24) 4:49 PM EDT (10/24)
Length of Visible Light 12h 03m
Length of Day
11h 14m
Waning Crescent, 17% of the Moon is Illuminated
Oct 24
Waning Crescent
Oct 27
New
Nov 4
First Quarter
Nov 12
Full
Nov 19
Last Quarter

Hourly Weather History & Observations

Time (EDT) Temp. Heat Index Dew Point Humidity Pressure Visibility Wind Dir Wind Speed Gust Speed Precip Events Conditions
12:53 AM 68.0 °F - 59.0 °F 73% 30.12 in 10.0 mi Calm Calm - N/A   Clear
1:53 AM 66.0 °F - 60.1 °F 81% 30.11 in 10.0 mi Calm Calm - N/A   Clear
2:53 AM 66.0 °F - 61.0 °F 84% 30.09 in 10.0 mi Calm Calm - N/A   Clear
3:53 AM 68.0 °F - 62.1 °F 81% 30.08 in 10.0 mi NE 4.6 mph - N/A   Clear
4:53 AM 68.0 °F - 63.0 °F 84% 30.08 in 10.0 mi Calm Calm - N/A   Clear
5:53 AM 66.9 °F - 63.0 °F 87% 30.09 in 10.0 mi NE 3.5 mph - N/A   Clear
6:53 AM 68.0 °F - 64.0 °F 87% 30.10 in 10.0 mi Calm Calm - N/A   Clear
7:53 AM 71.1 °F - 66.0 °F 84% 30.11 in 10.0 mi NNE 3.5 mph - N/A   Clear
8:53 AM 75.9 °F - 69.1 °F 79% 30.12 in 10.0 mi ENE 8.1 mph - N/A   Scattered Clouds
9:53 AM 80.1 °F 83.2 °F 70.0 °F 71% 30.13 in 10.0 mi Variable 5.8 mph - N/A   Clear
10:53 AM 84.0 °F 89.6 °F 72.0 °F 67% 30.13 in 10.0 mi East 10.4 mph - N/A   Clear
11:30 AM 84.9 °F 91.4 °F 73.0 °F 67% 30.14 in 10.0 mi East 9.2 mph - N/A   Mostly Cloudy
11:53 AM 84.9 °F 90.7 °F 72.0 °F 65% 30.13 in 10.0 mi ENE 11.5 mph - N/A   Overcast
12:09 PM 84.9 °F 90.7 °F 72.0 °F 65% 30.12 in 10.0 mi East 8.1 mph - N/A   Mostly Cloudy
12:53 PM 86.0 °F 92.2 °F 72.0 °F 63% 30.11 in 10.0 mi ENE 8.1 mph - N/A   Mostly Cloudy
2:53 PM 89.1 °F 97.0 °F 73.0 °F 59% 30.06 in 10.0 mi ENE 11.5 mph - N/A   Scattered Clouds
3:53 PM 89.1 °F 97.0 °F 73.0 °F 59% 30.05 in 10.0 mi ENE 11.5 mph 20.7 mph N/A   Clear
4:53 PM 87.1 °F 94.5 °F 73.0 °F 63% 30.06 in 10.0 mi ENE 15.0 mph - N/A   Partly Cloudy
5:53 PM 82.0 °F 87.4 °F 73.0 °F 74% 30.07 in 10.0 mi East 9.2 mph - 0.00 in Rain Light Rain
6:05 PM 80.1 °F 84.5 °F 73.9 °F 81% 30.08 in 5.0 mi ENE 9.2 mph 21.9 mph 0.01 in Rain Light Rain
6:29 PM 80.1 °F 84.5 °F 73.9 °F 81% 30.08 in 10.0 mi ENE 9.2 mph - 0.01 in   Mostly Cloudy
6:53 PM 79.0 °F - 73.9 °F 84% 30.09 in 10.0 mi ENE 8.1 mph - 0.01 in   Mostly Cloudy
8:53 PM 78.1 °F - 73.0 °F 84% 30.12 in 10.0 mi East 9.2 mph - N/A   Scattered Clouds
9:53 PM 78.1 °F - 73.0 °F 84% 30.14 in 10.0 mi ENE 6.9 mph - N/A   Overcast
10:07 PM 78.1 °F - 73.0 °F 84% 30.15 in 10.0 mi ENE 6.9 mph - N/A   Overcast
10:53 PM 78.1 °F - 73.0 °F 84% 30.14 in 9.0 mi ENE 5.8 mph - 0.00 in Rain Light Rain
11:53 PM 77.0 °F - 73.0 °F 88% 30.13 in 10.0 mi ENE 6.9 mph - 0.00 in   Scattered Clouds